This is the latest recevied weather packets stored in our database for station/object DL2MWB-13. If no packets are shown the sender has not sent any weather packets the latest 10 day(s).
| Time | Temp. | Humidity | Pressure | Rain* | Wind** | Luminosity | Snow |
|---|---|---|---|---|---|---|---|
| 1778209436 | 8.33° C | 71% | 1021 hPa | - | - | - | - |
| 1778208833 | 8.33° C | 67% | 1021 hPa | - | - | - | - |
| 1778208229 | 7.78° C | 65% | 1021 hPa | - | - | - | - |
| 1778207625 | 7.22° C | 63% | 1021 hPa | - | - | - | - |
| 1778207022 | 7.78° C | 62% | 1021 hPa | - | - | - | - |
| 1778206419 | 7.78° C | 64% | 1021 hPa | - | - | - | - |
| 1778205815 | 7.78° C | 64% | 1021 hPa | - | - | - | - |
| 1778205212 | 7.78° C | 64% | 1021 hPa | - | - | - | - |
| 1778204608 | 8.33° C | 64% | 1021 hPa | - | - | - | - |
| 1778204005 | 7.78° C | 63% | 1021 hPa | - | - | - | - |
| 1778203401 | 8.33° C | 63% | 1021 hPa | - | - | - | - |
| 1778202798 | 8.33° C | 63% | 1021 hPa | - | - | - | - |
| 1778202194 | 8.33° C | 62% | 1021 hPa | - | - | - | - |
| 1778201591 | 8.33° C | 63% | 1021 hPa | - | - | - | - |
| 1778200987 | 8.33° C | 63% | 1021 hPa | - | - | - | - |
| 1778200384 | 8.89° C | 62% | 1021 hPa | - | - | - | - |
| 1778199780 | 8.89° C | 63% | 1021 hPa | - | - | - | - |
| 1778199177 | 8.89° C | 63% | 1021 hPa | - | - | - | - |
| 1778198573 | 8.89° C | 63% | 1022 hPa | - | - | - | - |
| 1778197970 | 8.89° C | 63% | 1022 hPa | - | - | - | - |
| 1778197366 | 9.44° C | 63% | 1022 hPa | - | - | - | - |
| 1778196763 | 9.44° C | 63% | 1022 hPa | - | - | - | - |
| 1778196159 | 10° C | 64% | 1022 hPa | - | - | - | - |
| 1778195556 | 10° C | 65% | 1022 hPa | - | - | - | - |
| 1778194952 | 10° C | 65% | 1022 hPa | - | - | - | - |
* Rain since midnight (hover to see other rain measurements)
** Current wind speed in m/s (hover to see current wind gust speed)